Flag Weather past 2 weeks in Renens, Vaud, Switzerland

Now
46 °F

Fog.


Feels Like: 44 °F
Forecast: 36 / 58 °F
Wind: 3 mph from Northwest

Location: Aigle

Current Time: Nov 27, 2014 at 7:48:02 PM

Latest Report: Nov 27, 2014 at 7:00 PM


Visibility: 4 mi

Pressure: 29.75 "Hg

Humidity: 93%

Dew point: 44 °F

Location of RenensLocation

Historic Weather in Renens — Graph

°F

Renens temperature yesterday

Maximum temperature yesterday: 53 °F (at 1:00 PM)
Minimum temperature yesterday: 45 °F (at 11:00 PM)
Average temperature yesterday: 49 °F

Past Weeks' High & Low Weather Summary

 TemperatureHumidityPressure
High55 °F (Nov 24, 2:00 PM)100% (Nov 13, 6:00 AM)30.28 "Hg (Nov 13, 6:00 AM)
Low35 °F (Nov 23, 4:00 AM)47% (Nov 20, 12:00 PM)29.61 "Hg (Nov 15, 4:00 PM)
Average45 °F90%29.98 "Hg
* Reported Nov 12 6:00 PM — Nov 27 6:00 PM, Renens, Weather by CustomWeather, © 2014

Note: Actual official high and low records may vary slightly from our data, if they occured in-between our weather recording intervals... More about our weather records

Advertising

Renens weather history for previous 24 hours

 ConditionsComfort  
Time TempWeatherWind HumidityBarometerVisibility
6:00 PM
Nov 27
45 °FCool.2 mph94%29.73 "HgN/A
5:00 PM45 °FCool.5 mph92%29.76 "HgN/A
4:00 PM51 °FFog.2 mph84%29.75 "Hg4 mi
3:00 PM53 °FCool.5 mph82%29.74 "HgN/A
2:00 PM53 °FCool.3 mph78%29.75 "HgN/A
1:00 PM53 °FPartly sunny.7 mph78%29.77 "Hg5 mi
12:00 PM52 °FCool.6 mph82%29.78 "HgN/A
11:00 AM51 °FCool.1 mph89%29.80 "HgN/A
10:00 AM47 °FOvercast.2 mph96%29.80 "Hg12 mi
9:00 AM44 °FQuite cool.3 mph96%29.81 "HgN/A
8:00 AM44 °FQuite cool.2 mph97%29.82 "HgN/A
7:00 AM43 °FFog.2 mph97%29.82 "Hg4 mi
6:00 AM43 °FQuite cool.3 mph96%29.81 "HgN/A
5:00 AM42 °FQuite cool.2 mph97%29.83 "HgN/A
3:00 AM40 °FQuite cool.1 mph100%29.86 "HgN/A
2:00 AM41 °FQuite cool.2 mph100%29.86 "HgN/A
1:00 AM41 °FQuite cool.2 mph100%29.88 "HgN/A
12:00 AM40 °FChilly.1 mph100%29.90 "HgN/A
11:00 PM
Nov 26
45 °FCool.1 mph98%29.90 "HgN/A
10:00 PM46 °FCool.1 mph99%29.91 "HgN/A
9:00 PM47 °FCool.1 mph97%29.91 "HgN/A
8:00 PM48 °FCool.3 mph94%29.92 "HgN/A
7:00 PM50 °FCool.1 mph90%29.92 "HgN/A
Weather by CustomWeather, © 2014

See weather overviewHow to use our weather pages